Twin Falls, ID

5:36 AM MDT on March 27, 2017 (GMT -0600)
Joslin Field-Magic Valley Regional

Weather History for KTWF - February, 2013

Change the Weather History Date:

Saturday, February 23, 2013

  Actual Average Record
Temperature  
Mean Temperature 33 °F -  
Max Temperature 40 °F 45 °F 62 °F (1991)
Min Temperature 25 °F 25 °F 15 °F (1984)
Degree Days  
Heating Degree Days 32 30  
Month to date heating degree days 704 754  
Since 1 July heating degree days 4123 4422  
Cooling Degree Days 0 0  
Month to date cooling degree days 0 0  
Year to date cooling degree days 0 0  
Moisture  
Dew Point 24 °F    
Average Humidity 73    
Maximum Humidity 89    
Minimum Humidity 56    
Precipitation  
Precipitation 0.09 in 0.02 in 0.20 in (1986)
Month to date precipitation 0.79 0.68  
Year to date precipitation 0.93 1.66  
Sea Level Pressure  
Sea Level Pressure 29.83 in    
Wind  
Wind Speed 25 mph (SW)    
Max Wind Speed 49 mph    
Max Gust Speed 63 mph    
Visibility 6 miles    
Events Fog , Snow    
T = Trace of Precipitation, MM = Missing Value Source: NWS Daily Summary

Daily Weather History Graph

Daily Weather History Graph

Search for Another Location

Airport or City:

Trip Planner

Search our weather history database for the weather conditions in past years. The results will help you decide how hot, cold, wet, or windy it might be!

Date:

Astronomy

Feb. 23, 2013 Rise Set
Actual Time 7:22 AM MST 6:20 PM MST
Civil Twilight 6:53 AM MST 6:49 PM MST
Nautical Twilight 6:21 AM MST 7:21 PM MST
Astronomical Twilight 5:48 AM MST 7:54 PM MST
Moon 4:34 PM MST (2/23) 5:48 AM MST (2/23)
Length of Visible Light 11h 55m
Length of Day
10h 58m
Waxing Gibbous, 95% of the Moon is Illuminated
Feb 23
Waxing Gibbous
Feb 25
Full
Mar 4
Last Quarter
Mar 11
New
Mar 19
First Quarter

Hourly Weather History & Observations

Time (MST) Temp. Windchill Dew Point Humidity Pressure Visibility Wind Dir Wind Speed Gust Speed Precip Events Conditions
12:06 AM 35.6 °F 27.5 °F 28.4 °F 75% 29.88 in 1.8 mi South 11.5 mph - 0.00 in Snow Light Snow
12:53 AM 34.0 °F 24.6 °F 30.0 °F 85% 29.84 in 1.5 mi South 13.8 mph - 0.00 in Snow Light Snow
12:59 AM 35.6 °F 26.2 °F 30.2 °F 81% 29.84 in 3.0 mi South 15.0 mph - 0.00 in Snow Light Snow
1:21 AM 35.6 °F 25.2 °F 30.2 °F 81% 29.81 in 2.0 mi South 18.4 mph 25.3 mph 0.00 in Snow Light Snow
1:30 AM 35.6 °F 25.2 °F 30.2 °F 81% 29.80 in 1.8 mi South 18.4 mph 27.6 mph 0.00 in Snow Light Snow
1:53 AM 35.1 °F 24.5 °F 30.0 °F 82% 29.76 in 1.5 mi South 18.4 mph 25.3 mph 0.00 in Snow Light Snow
2:09 AM 35.6 °F 24.8 °F 30.2 °F 81% 29.77 in 2.0 mi South 19.6 mph 29.9 mph 0.00 in Snow Light Snow
2:28 AM 35.6 °F 23.7 °F 30.2 °F 81% 29.75 in 1.5 mi South 24.2 mph 31.1 mph 0.00 in Snow Light Snow
2:36 AM 35.6 °F 24.8 °F 30.2 °F 81% 29.75 in 1.0 mi South 19.6 mph 29.9 mph 0.01 in Snow Light Snow
2:53 AM 36.0 °F 25.3 °F 30.0 °F 79% 29.69 in 2.0 mi South 19.6 mph 27.6 mph 0.01 in Snow Light Snow
2:58 AM 35.6 °F 24.8 °F 30.2 °F 81% 29.70 in 5.0 mi South 19.6 mph 27.6 mph 0.00 in Snow Light Snow
3:53 AM 37.9 °F 27.6 °F 28.0 °F 68% 29.61 in 9.0 mi South 20.7 mph 33.4 mph 0.00 in Snow Light Snow
4:44 AM 35.6 °F 21.5 °F 26.6 °F 70% 29.69 in 1.2 mi WSW 35.7 mph 46.0 mph 0.04 in Snow Light Snow
4:46 AM 33.8 °F 19.0 °F 26.6 °F 75% 29.69 in 0.8 mi WSW 35.7 mph 46.0 mph 0.05 in Snow Light Snow
4:50 AM 30.2 °F 13.5 °F 26.6 °F 86% 29.68 in 0.2 mi WSW 39.1 mph 48.3 mph 0.05 in Fog , Snow Snow
4:53 AM 30.9 °F 15.1 °F 27.0 °F 85% 29.68 in 0.2 mi WSW 35.7 mph 48.3 mph 0.05 in Fog , Snow Snow
4:59 AM 30.2 °F 14.1 °F 26.6 °F 86% 29.68 in 0.2 mi WSW 35.7 mph 48.3 mph 0.01 in Fog , Snow Light Snow
5:25 AM 30.2 °F 14.7 °F 26.6 °F 86% 29.72 in 0.5 mi West 32.2 mph 43.7 mph 0.03 in Fog , Snow Snow
5:46 AM 30.2 °F 16.5 °F 26.6 °F 86% 29.76 in 1.0 mi WSW 24.2 mph 33.4 mph 0.03 in Snow Light Snow
5:53 AM 30.9 °F 17.2 °F 26.1 °F 82% 29.76 in 1.0 mi WSW 25.3 mph 34.5 mph 0.03 in Snow Light Snow
6:18 AM 30.2 °F 14.7 °F 24.8 °F 80% 29.77 in 1.0 mi WSW 32.2 mph 41.4 mph 0.00 in Snow Light Snow
6:24 AM 30.2 °F 14.9 °F 24.8 °F 80% 29.78 in 2.0 mi WSW 31.1 mph 41.4 mph 0.00 in Snow Light Snow
6:32 AM 30.2 °F 14.5 °F 24.8 °F 80% 29.78 in 9.0 mi WSW 33.4 mph 41.4 mph 0.00 in   Overcast
6:53 AM 30.0 °F 15.2 °F 25.0 °F 82% 29.80 in 10.0 mi WSW 28.8 mph 38.0 mph 0.00 in   Overcast
7:24 AM 30.2 °F 15.4 °F 23.0 °F 75% 29.80 in 10.0 mi WSW 28.8 mph 42.6 mph N/A   Overcast
7:53 AM 28.9 °F 13.5 °F 21.9 °F 75% 29.80 in 10.0 mi WSW 29.9 mph 42.6 mph N/A   Scattered Clouds
8:53 AM 28.0 °F 11.8 °F 19.0 °F 69% 29.83 in 10.0 mi WSW 32.2 mph 43.7 mph N/A   Clear
9:53 AM 28.0 °F 11.3 °F 18.0 °F 66% 29.87 in 10.0 mi West 34.5 mph 42.6 mph 0.00 in   Scattered Clouds
10:53 AM 30.0 °F 14.5 °F 19.0 °F 64% 29.88 in 10.0 mi West 32.2 mph 43.7 mph N/A   Clear
11:53 AM 30.9 °F 15.5 °F 19.0 °F 61% 29.89 in 10.0 mi West 33.4 mph 43.7 mph N/A   Clear
12:53 PM 32.0 °F 16.3 °F 19.9 °F 61% 29.90 in 10.0 mi West 36.8 mph 43.7 mph N/A   Mostly Cloudy
1:53 PM 33.1 °F 19.1 °F 19.0 °F 56% 29.91 in 10.0 mi West 29.9 mph 42.6 mph N/A   Mostly Cloudy
2:53 PM 33.1 °F 18.9 °F 19.9 °F 59% 29.89 in 10.0 mi West 31.1 mph 42.6 mph N/A   Mostly Cloudy
3:53 PM 33.1 °F 20.1 °F 21.0 °F 61% 29.90 in 10.0 mi West 25.3 mph 42.6 mph N/A   Mostly Cloudy
4:53 PM 32.0 °F 19.2 °F 21.0 °F 64% 29.96 in 10.0 mi West 23.0 mph 32.2 mph N/A   Clear
5:53 PM 30.9 °F 17.2 °F 18.0 °F 59% 29.97 in 10.0 mi West 25.3 mph 31.1 mph N/A   Clear
6:53 PM 30.0 °F 17.5 °F 18.0 °F 61% 30.01 in 10.0 mi West 19.6 mph - N/A   Clear
7:53 PM 28.0 °F 16.1 °F 19.0 °F 69% 30.04 in 10.0 mi West 16.1 mph - N/A   Clear
8:53 PM 28.0 °F 14.6 °F 19.0 °F 69% 30.05 in 10.0 mi West 20.7 mph - N/A   Clear
9:53 PM 28.0 °F 14.9 °F 19.0 °F 69% 30.07 in 10.0 mi West 19.6 mph - N/A   Clear
10:53 PM 27.0 °F 14.3 °F 19.0 °F 72% 30.08 in 10.0 mi West 17.3 mph - N/A   Clear
11:53 PM 25.0 °F 12.6 °F 18.0 °F 75% 30.10 in 10.0 mi WSW 15.0 mph - N/A   Clear